User: anonymous   Login
Location: Unspecified
(0.0000°N, 0.0000°E)
Time: 07:55:08
(UTC+00:00)
Language:

ELFIN B - Orbit

View from above orbital plane
View from above orbital plane
View from above satellite
View from above satellite

Ground track
Ground track

The orbit data is extracted from the following two-line orbital elements,

1 43616U 18070D   20224.04182890  .00003312  00000-0  80942-4 0  9994
2 43616  93.0202 177.1107 0018164 121.2588 239.0449 15.40708096106928
Epoch (UTC): 11 August 2020 01:00:14
Eccentricity: 0.0018164
inclination: 93.0202°
perigee height: 431 km
apogee height: 456 km
right ascension of ascending node: 177.1107°
argument of perigee: 121.2588°
revolutions per day: 15.40708096
mean anomaly at epoch: 239.0449°
orbit number at epoch: 10692

The dashed part of the orbit path shows where the satellite is in the earth's shadow,  

DLR